This is the latest recevied weather packets stored in our database for station/object SP9KB-14. If no packets are shown the sender has not sent any weather packets the latest 10 day(s).
| Time | Temp. | Humidity | Pressure | Rain* | Wind** | Luminosity | Snow |
|---|---|---|---|---|---|---|---|
| 1777997818 | 25° C | 30% | 1030.2 hPa | 0 mm | - | - | - |
| 1777997518 | 25° C | 30% | 1030.5 hPa | 0 mm | - | - | - |
| 1777997217 | 25.56° C | 29% | 1030.1 hPa | 0 mm | - | - | - |
| 1777996917 | 25.56° C | 28% | 1030.2 hPa | 0 mm | - | - | - |
| 1777996616 | 25.56° C | 28% | 1030.3 hPa | 0 mm | - | - | - |
| 1777996315 | 25.56° C | 28% | 1030.3 hPa | 0 mm | - | - | - |
| 1777996015 | 26.11° C | 27% | 1030.3 hPa | 0 mm | - | - | - |
| 1777995714 | 26.11° C | 27% | 1030.3 hPa | 0 mm | - | - | - |
| 1777995414 | 25.56° C | 27% | 1030.5 hPa | 0 mm | - | - | - |
| 1777995113 | 26.11° C | 26% | 1030.2 hPa | 0 mm | - | - | - |
| 1777994813 | 26.67° C | 26% | 1030.4 hPa | 0 mm | - | - | - |
| 1777994512 | 27.22° C | 26% | 1030.3 hPa | 0 mm | - | - | - |
| 1777994212 | 27.22° C | 26% | 1030.2 hPa | 0 mm | - | - | - |
| 1777993911 | 27.22° C | 26% | 1030.2 hPa | 0 mm | - | - | - |
| 1777993611 | 27.22° C | 27% | 1030.2 hPa | 0 mm | - | - | - |
| 1777993310 | 27.22° C | 26% | 1030.4 hPa | 0 mm | - | - | - |
| 1777993010 | 27.22° C | 26% | 1030 hPa | 0 mm | - | - | - |
| 1777992709 | 27.22° C | 25% | 1030.3 hPa | 0 mm | - | - | - |
| 1777992409 | 27.78° C | 25% | 1030.3 hPa | 0 mm | - | - | - |
| 1777992108 | 27.78° C | 27% | 1030.4 hPa | 0 mm | - | - | - |
| 1777991807 | 27.78° C | 27% | 1030.5 hPa | 0 mm | - | - | - |
| 1777991507 | 27.78° C | 28% | 1030.3 hPa | 0 mm | - | - | - |
| 1777991207 | 27.78° C | 26% | 1030.6 hPa | 0 mm | - | - | - |
| 1777990906 | 27.22° C | 27% | 1030.6 hPa | 0 mm | - | - | - |
| 1777990605 | 27.22° C | 27% | 1030.4 hPa | 0 mm | - | - | - |
* Rain latest hour (hover to see other rain measurements)
** Current wind speed in m/s (hover to see current wind gust speed)